| time (UTC) | temp F | wind direction | speed MPH | gust MPH | rain 1hr in | rain 24hr in | rain mn in | humidity % | barometer mb |
| 20260903221538 | 59 | 196 | 0.0 | 0.0 | 0.00 | 0.00 | 0.00 | 83 | 1021.9 |
| 20260903220039 | 60 | 223 | 0.0 | 0.0 | 0.00 | 0.00 | 0.00 | 82 | 1021.8 |
| 20260903214541 | 60 | 273 | 0.0 | 1.0 | 0.00 | 0.00 | 0.00 | 83 | 1021.7 |
| 20260903213041 | 60 | 234 | 0.0 | 2.0 | 0.00 | 0.00 | 0.00 | 82 | 1021.6 |
| 20260903211533 | 60 | 213 | 0.0 | 0.0 | 0.00 | 0.00 | 0.00 | 81 | 1021.7 |
| 20260903210033 | 61 | 236 | 1.0 | 2.0 | 0.00 | 0.00 | 0.00 | 81 | 1021.8 |
| 20260903204532 | 60 | 145 | 0.0 | 0.0 | 0.00 | 0.00 | 0.00 | 80 | 1021.8 |
| 20260903203048 | 61 | 223 | 0.0 | 2.0 | 0.00 | 0.00 | 0.00 | 81 | 1021.7 |
| 20260903201536 | 61 | 205 | 0.0 | 0.0 | 0.00 | 0.00 | 0.00 | 81 | 1021.3 |
| 20260903200031 | 61 | 226 | 0.0 | 2.0 | 0.00 | 0.00 | 0.00 | 77 | 1021.1 |
| 20260903194530 | 62 | 271 | 0.0 | 3.0 | 0.00 | 0.00 | 0.00 | 74 | 1021.1 |
| 20260903193035 | 62 | 231 | 0.0 | 3.0 | 0.00 | 0.00 | 0.00 | 76 | 1021.1 |
| 20260903191526 | 62 | 294 | 0.0 | 0.0 | 0.00 | 0.00 | 0.00 | 77 | 1021.0 |
| 20260903190126 | 62 | 294 | 0.0 | 2.0 | 0.00 | 0.00 | 0.00 | 77 | 1021.0 |
| 20260903184528 | 62 | 305 | 0.0 | 2.0 | 0.00 | 0.00 | 0.00 | 76 | 1020.9 |
| 20260903183023 | 63 | 215 | 0.0 | 3.0 | 0.00 | 0.00 | 0.00 | 72 | 1020.7 |
| 20260903181522 | 64 | 273 | 0.0 | 3.0 | 0.00 | 0.00 | 0.00 | 71 | 1020.5 |
| 20260903180121 | 65 | 242 | 0.0 | 3.0 | 0.00 | 0.00 | 0.00 | 71 | 1020.3 |
| 20260903174509 | 66 | 269 | 0.0 | 3.0 | 0.00 | 0.00 | 0.00 | 67 | 1020.3 |
| 20260903173009 | 67 | 355 | 0.0 | 3.0 | 0.00 | 0.00 | 0.00 | 64 | 1020.2 |
| 20260903171503 | 68 | 28 | 3.0 | 6.0 | 0.00 | 0.00 | 0.00 | 61 | 1020.3 |
| 20260903170002 | 69 | 9 | 3.0 | 9.0 | 0.00 | 0.00 | 0.00 | 59 | 1020.2 |
| 20260903164505 | 69 | 50 | 3.0 | 5.0 | 0.00 | 0.00 | 0.00 | 58 | 1020.1 |
| 20260903163001 | 70 | 34 | 3.0 | 6.0 | 0.00 | 0.00 | 0.00 | 58 | 1019.9 |
| 20260903161502 | 71 | 13 | 2.0 | 6.0 | 0.00 | 0.00 | 0.00 | 57 | 1019.9 |
| 20260903154559 | 73 | 5 | 3.0 | 8.0 | 0.00 | 0.00 | 0.00 | 56 | 1019.8 |
| 20260903153056 | 73 | 13 | 4.0 | 7.0 | 0.00 | 0.00 | 0.00 | 52 | 1019.8 |
| 20260903151554 | 74 | 355 | 3.0 | 7.0 | 0.00 | 0.00 | 0.00 | 53 | 1019.9 |
| 20260903150053 | 74 | 80 | 2.0 | 9.0 | 0.00 | 0.00 | 0.00 | 50 | 1020.0 |
| 20260903144605 | 74 | 32 | 7.0 | 14.0 | 0.00 | 0.00 | 0.00 | 51 | 1020.3 |
| 20260903143051 | 73 | 55 | 5.0 | 13.0 | 0.00 | 0.00 | 0.00 | 56 | 1020.3 |
| 20260903141554 | 73 | 59 | 6.0 | 16.0 | 0.00 | 0.00 | 0.00 | 56 | 1020.1 |
| 20260903140052 | 73 | 64 | 8.0 | 14.0 | 0.00 | 0.00 | 0.00 | 56 | 1019.8 |
| 20260903134550 | 73 | 21 | 8.0 | 12.0 | 0.00 | 0.00 | 0.00 | 56 | 1019.8 |
| 20260903133057 | 74 | 51 | 7.0 | 11.0 | 0.00 | 0.00 | 0.00 | 53 | 1019.7 |
| 20260903131549 | 74 | 22 | 6.0 | 11.0 | 0.00 | 0.00 | 0.00 | 56 | 1019.4 |
| 20260903130050 | 75 | 32 | 4.0 | 10.0 | 0.00 | 0.00 | 0.00 | 56 | 1019.8 |
| 20260903124555 | 75 | 73 | 3.0 | 11.0 | 0.00 | 0.00 | 0.00 | 51 | 1020.1 |
| 20260903123045 | 75 | 42 | 5.0 | 13.0 | 0.00 | 0.00 | 0.00 | 57 | 1020.2 |
| 20260903121544 | 76 | 103 | 4.0 | 14.0 | 0.00 | 0.00 | 0.00 | 55 | 1020.3 |
| 20260903120055 | 74 | 11 | 6.0 | 13.0 | 0.00 | 0.00 | 0.00 | 55 | 1020.2 |
| 20260903114542 | 75 | 38 | 6.0 | 13.0 | 0.00 | 0.00 | 0.00 | 52 | 1020.2 |
| 20260903113104 | 74 | 333 | 6.0 | 12.0 | 0.00 | 0.00 | 0.00 | 56 | 1020.1 |
| 20260903111537 | 74 | 49 | 6.0 | 13.0 | 0.00 | 0.00 | 0.00 | 57 | 1020.0 |
| 20260903110033 | 74 | 31 | 6.0 | 12.0 | 0.00 | 0.00 | 0.00 | 55 | 1020.1 |
| 20260903104550 | 73 | 37 | 6.0 | 11.0 | 0.00 | 0.00 | 0.00 | 57 | 1020.2 |
| 20260903103032 | 74 | 340 | 7.0 | 11.0 | 0.00 | 0.00 | 0.00 | 56 | 1020.3 |
| 20260903101528 | 72 | 17 | 4.0 | 13.0 | 0.00 | 0.00 | 0.00 | 55 | 1020.6 |
| 20260903100031 | 72 | 28 | 2.0 | 6.0 | 0.00 | 0.00 | 0.00 | 57 | 1020.6 |
| 20260903094531 | 71 | 40 | 4.0 | 6.0 | 0.00 | 0.00 | 0.00 | 55 | 1020.8 |
| 20260903093017 | 71 | 39 | 2.0 | 5.0 | 0.00 | 0.00 | 0.00 | 58 | 1021.0 |
| 20260903091513 | 70 | 81 | 1.0 | 5.0 | 0.00 | 0.00 | 0.00 | 61 | 1020.9 |
| 20260903090011 | 68 | 309 | 0.0 | 4.0 | 0.00 | 0.00 | 0.00 | 67 | 1020.9 |
| 20260903084508 | 67 | 25 | 1.0 | 4.0 | 0.00 | 0.00 | 0.00 | 67 | 1021.0 |
| 20260903083002 | 65 | 30 | 0.0 | 3.0 | 0.00 | 0.00 | 0.00 | 69 | 1021.0 |
| 20260903081558 | 63 | 304 | 0.0 | 4.0 | 0.00 | 0.00 | 0.00 | 75 | 1021.4 |
| 20260903080057 | 62 | 227 | 1.0 | 4.0 | 0.00 | 0.00 | 0.00 | 75 | 1021.4 |
| 20260903074550 | 60 | 87 | 0.0 | 2.0 | 0.00 | 0.00 | 0.00 | 78 | 1021.6 |
| 20260903073047 | 60 | 81 | 1.0 | 2.0 | 0.00 | 0.00 | 0.00 | 80 | 1022.0 |
| 20260903071558 | 59 | 355 | 1.0 | 3.0 | 0.00 | 0.00 | 0.00 | 79 | 1022.0 |
| 20260903070043 | 58 | 254 | 1.0 | 3.0 | 0.00 | 0.00 | 0.00 | 79 | 1021.8 |
| 20260903064541 | 56 | 197 | 1.0 | 4.0 | 0.00 | 0.00 | 0.00 | 86 | 1021.9 |
| 20260903063039 | 54 | 279 | 1.0 | 3.0 | 0.00 | 0.00 | 0.00 | 88 | 1021.9 |
| 20260903061538 | 53 | 85 | 0.0 | 0.0 | 0.00 | 0.00 | 0.00 | 89 | 1021.8 |
| 20260903060035 | 52 | 85 | 0.0 | 2.0 | 0.00 | 0.00 | 0.00 | 91 | 1021.9 |
| 20260903054536 | 52 | 92 | 0.0 | 3.0 | 0.00 | 0.00 | 0.00 | 91 | 1021.8 |
| 20260903053035 | 52 | 116 | 0.0 | 2.0 | 0.00 | 0.00 | 0.00 | 91 | 1021.8 |
| 20260903051547 | 51 | 107 | 0.0 | 4.0 | 0.00 | 0.00 | 0.00 | 91 | 1021.8 |
| 20260903050027 | 51 | 235 | 0.0 | 2.0 | 0.00 | 0.00 | 0.00 | 92 | 1021.8 |
| 20260903044533 | 51 | 227 | 0.0 | 2.0 | 0.00 | 0.00 | 0.00 | 92 | 1021.7 |
| 20260903043059 | 51 | 230 | 0.0 | 1.0 | 0.00 | 0.00 | 0.00 | 91 | 1021.5 |
| 20260903041524 | 51 | 275 | 0.0 | 2.0 | 0.00 | 0.00 | 0.00 | 92 | 1021.5 |
| 20260903040023 | 50 | 133 | 2.0 | 3.0 | 0.00 | 0.00 | 0.00 | 92 | 1021.4 |
| 20260903034535 | 50 | 288 | 0.0 | 1.0 | 0.00 | 0.00 | 0.00 | 92 | 1021.4 |
| 20260903033021 | 50 | 186 | 0.0 | 0.0 | 0.00 | 0.00 | 0.00 | 92 | 1021.4 |
| 20260903031520 | 50 | 134 | 0.0 | 1.0 | 0.00 | 0.00 | 0.00 | 92 | 1021.6 |
| 20260903030018 | 51 | 171 | 0.0 | 2.0 | 0.00 | 0.00 | 0.00 | 90 | 1021.3 |
| 20260903024523 | 51 | 240 | 0.0 | 2.0 | 0.00 | 0.00 | 0.00 | 91 | 1021.3 |
| 20260903023017 | 51 | 113 | 0.0 | 1.0 | 0.00 | 0.00 | 0.00 | 91 | 1021.6 |
| 20260903021517 | 51 | 113 | 0.0 | 2.0 | 0.00 | 0.00 | 0.00 | 91 | 1021.5 |
| 20260903020015 | 51 | 207 | 0.0 | 4.0 | 0.00 | 0.00 | 0.00 | 91 | 1021.3 |
| 20260903014518 | 51 | 174 | 0.0 | 2.0 | 0.00 | 0.00 | 0.00 | 91 | 1021.4 |
| 20260903013011 | 52 | 169 | 0.0 | 0.0 | 0.00 | 0.00 | 0.00 | 91 | 1021.5 |
| 20260903011515 | 52 | 169 | 0.0 | 1.0 | 0.00 | 0.00 | 0.00 | 90 | 1021.4 |
| 20260903010010 | 52 | 169 | 0.0 | 0.0 | 0.00 | 0.00 | 0.00 | 90 | 1021.4 |
| 20260903004509 | 53 | 169 | 0.0 | 0.0 | 0.00 | 0.00 | 0.00 | 90 | 1021.3 |
| 20260903003009 | 53 | 166 | 0.0 | 5.0 | 0.00 | 0.00 | 0.00 | 90 | 1021.2 |
| 20260903001505 | 53 | 207 | 0.0 | 0.0 | 0.00 | 0.00 | 0.00 | 89 | 1021.2 |
| 20260903000003 | 54 | 178 | 0.0 | 0.0 | 0.00 | 0.00 | 0.00 | 88 | 1021.3 |
| 20260902234502 | 55 | 178 | 0.0 | 2.0 | 0.00 | 0.00 | 0.00 | 87 | 1021.2 |
| 20260902233102 | 55 | 184 | 1.0 | 3.0 | 0.00 | 0.00 | 0.00 | 86 | 1021.2 |
| 20260902231601 | 56 | 215 | 1.0 | 3.0 | 0.00 | 0.00 | 0.00 | 86 | 1021.2 |
| 20260902230104 | 57 | 250 | 0.0 | 3.0 | 0.00 | 0.00 | 0.00 | 85 | 1021.3 |
| 20260902224609 | 57 | 72 | 0.0 | 0.0 | 0.00 | 0.00 | 0.00 | 85 | 1021.4 |
| 20260902223053 | 57 | 264 | 0.0 | 0.0 | 0.00 | 0.00 | 0.00 | 85 | 1021.4 |